RYR14J ESSA-LIMC

Flight info

Callsign RYR14J
Flight time 3h 6m
Altitude 36000
Route NOSLI N850 ABAMA DCT MAKEL/N0453F380 DCT TOLGI DCT BOMBI DCT GIGET DCT ABUKA DCT KRH DCT NATOR/N0459F390 DCT TRA DCT RIPUS DCT GERSA DCT SOSON DCT DEGAD Z424 BASGO/N0464F290 Z424 AKASU/N0395F190 Z424 RIXUV
Aircraft B737/M-SDE2E3FGHIRWXY/LB1

Departure

Time 2026-05-05 18:11
Airport Stockholm-Arlanda Airport (ESSA)

Arrival

Time 2026-05-05 21:17
Airport Milan Malpensa International Airport (LIMC)
Time Latitude Longitude Altitude Speed Heading
2026-05-05 17:45 59.65136 17.92796 111 ft 0 kts 192°
2026-05-05 17:59 59.65137 17.92796 111 ft 1 kts 192°
2026-05-05 17:59 59.65160 17.92807 111 ft 4 kts 197°
2026-05-05 17:59 59.65185 17.92826 111 ft 4 kts 209°
2026-05-05 18:00 59.65205 17.92856 110 ft 4 kts 249°
2026-05-05 18:00 59.65207 17.92880 109 ft 0 kts 292°
2026-05-05 18:04 59.65211 17.92871 109 ft 3 kts 306°
2026-05-05 18:04 59.65237 17.92836 111 ft 7 kts 330°
2026-05-05 18:04 59.65288 17.92780 111 ft 10 kts 332°
2026-05-05 18:05 59.65350 17.92714 111 ft 10 kts 331°
2026-05-05 18:05 59.65377 17.92598 110 ft 11 kts 255°
2026-05-05 18:05 59.65320 17.92488 110 ft 12 kts 212°
2026-05-05 18:05 59.65245 17.92413 110 ft 12 kts 200°
2026-05-05 18:06 59.65165 17.92370 111 ft 12 kts 188°
2026-05-05 18:06 59.65136 17.92361 111 ft 13 kts 190°
2026-05-05 18:06 59.64980 17.92304 111 ft 15 kts 191°
2026-05-05 18:06 59.64876 17.92266 111 ft 16 kts 190°
2026-05-05 18:07 59.64764 17.92225 111 ft 17 kts 190°
2026-05-05 18:07 59.64652 17.92185 111 ft 16 kts 190°
2026-05-05 18:07 59.64542 17.92145 111 ft 16 kts 190°
2026-05-05 18:07 59.64434 17.92107 113 ft 15 kts 190°
2026-05-05 18:08 59.64331 17.92071 113 ft 15 kts 190°
2026-05-05 18:08 59.64227 17.92031 114 ft 15 kts 191°
2026-05-05 18:08 59.64136 17.91941 113 ft 16 kts 257°
2026-05-05 18:08 59.64065 17.91809 113 ft 16 kts 194°
2026-05-05 18:09 59.63946 17.91763 110 ft 19 kts 190°
2026-05-05 18:09 59.63819 17.91662 106 ft 21 kts 216°
2026-05-05 18:09 59.63728 17.91466 107 ft 18 kts 265°
2026-05-05 18:09 59.63801 17.91349 109 ft 14 kts
2026-05-05 18:10 59.63921 17.91393 109 ft 35 kts 11°
2026-05-05 18:10 59.64426 17.91572 107 ft 110 kts 10°
2026-05-05 18:10 59.65020 17.91781 107 ft 151 kts
2026-05-05 18:10 59.66168 17.92242 422 ft 180 kts 12°
2026-05-05 18:11 59.67436 17.92707 1202 ft 189 kts
2026-05-05 18:11 59.68741 17.93077 2135 ft 187 kts
2026-05-05 18:11 59.69994 17.93049 3159 ft 173 kts 339°
2026-05-05 18:11 59.70859 17.91558 3903 ft 175 kts 293°
2026-05-05 18:12 59.70848 17.89063 4262 ft 197 kts 246°
2026-05-05 18:12 59.70165 17.86659 4881 ft 202 kts 248°
2026-05-05 18:12 59.69669 17.84052 5582 ft 203 kts 256°
2026-05-05 18:12 59.69340 17.81330 6277 ft 204 kts 262°
2026-05-05 18:13 59.69131 17.78543 6930 ft 205 kts 263°
2026-05-05 18:13 59.68570 17.75864 7245 ft 229 kts 230°
2026-05-05 18:13 59.67270 17.73853 7678 ft 244 kts 219°
2026-05-05 18:13 59.65807 17.71843 7993 ft 264 kts 218°
2026-05-05 18:14 59.64265 17.69755 8768 ft 271 kts 218°
2026-05-05 18:14 59.62710 17.67659 9744 ft 271 kts 218°
2026-05-05 18:14 59.61134 17.65531 10426 ft 282 kts 218°
2026-05-05 18:14 59.59441 17.63233 10638 ft 308 kts 218°
2026-05-05 18:15 59.57601 17.60738 10848 ft 332 kts 218°
2026-05-05 18:15 59.55671 17.58132 11220 ft 347 kts 218°
2026-05-05 18:15 59.53657 17.55420 11967 ft 352 kts 219°
2026-05-05 18:15 59.53410 17.55088 12072 ft 352 kts 219°
2026-05-05 18:16 59.53055 17.54611 12228 ft 352 kts 219°
2026-05-05 18:16 59.51030 17.51890 13122 ft 353 kts 219°
2026-05-05 18:16 59.48995 17.49155 13964 ft 355 kts 220°
2026-05-05 18:17 59.46960 17.46423 14885 ft 352 kts 220°
2026-05-05 18:17 59.44970 17.43757 15900 ft 347 kts 221°
2026-05-05 18:17 59.42981 17.41091 16869 ft 345 kts 221°
2026-05-05 18:17 59.40999 17.38433 17753 ft 345 kts 222°
2026-05-05 18:18 59.39016 17.35776 18536 ft 345 kts 222°
2026-05-05 18:18 59.37024 17.33105 19094 ft 350 kts 222°
2026-05-05 18:18 59.34994 17.30385 19644 ft 355 kts 222°
2026-05-05 18:18 59.32947 17.27650 20237 ft 358 kts 222°
2026-05-05 18:19 59.30875 17.24889 20740 ft 363 kts 221°
2026-05-05 18:19 59.28790 17.22109 21141 ft 370 kts 221°
2026-05-05 18:19 59.26650 17.19268 21716 ft 372 kts 221°
2026-05-05 18:19 59.24499 17.16420 22317 ft 375 kts 221°
2026-05-05 18:20 59.22326 17.13544 22850 ft 378 kts 221°
2026-05-05 18:20 59.20137 17.10652 23364 ft 382 kts 221°
2026-05-05 18:20 59.17923 17.07733 23801 ft 385 kts 221°
2026-05-05 18:20 59.15696 17.04800 24260 ft 387 kts 221°
2026-05-05 18:21 59.13455 17.01855 24705 ft 389 kts 221°
2026-05-05 18:21 59.11202 16.98897 25117 ft 392 kts 221°
2026-05-05 18:21 59.08932 16.95924 25525 ft 395 kts 221°
2026-05-05 18:21 59.06648 16.92935 25933 ft 397 kts 221°
2026-05-05 18:22 59.04345 16.89924 26226 ft 401 kts 220°
2026-05-05 18:22 59.02054 16.86935 26582 ft 403 kts 220°
2026-05-05 18:22 58.99717 16.83892 26974 ft 405 kts 220°
2026-05-05 18:22 58.98062 16.81740 27239 ft 406 kts 220°
2026-05-05 18:23 58.95711 16.78689 27650 ft 407 kts 220°
2026-05-05 18:23 58.93346 16.75622 27965 ft 411 kts 220°
2026-05-05 18:23 58.90962 16.72535 28334 ft 412 kts 220°
2026-05-05 18:23 58.88589 16.69471 28845 ft 410 kts 220°
2026-05-05 18:24 58.86223 16.66421 29468 ft 407 kts 220°
2026-05-05 18:24 58.83870 16.63393 29982 ft 405 kts 220°
2026-05-05 18:24 58.81550 16.60410 30302 ft 405 kts 220°
2026-05-05 18:24 58.79195 16.57384 30577 ft 408 kts 220°
2026-05-05 18:25 58.76831 16.54351 30904 ft 408 kts 220°
2026-05-05 18:25 58.75234 16.52308 31193 ft 407 kts 220°
2026-05-05 18:25 58.72121 16.48333 31748 ft 405 kts 220°
2026-05-05 18:25 58.69771 16.45337 32105 ft 404 kts 220°
2026-05-05 18:26 58.67429 16.42354 32440 ft 404 kts 220°
2026-05-05 18:26 58.65083 16.39371 32781 ft 404 kts 220°
2026-05-05 18:26 58.62739 16.36396 33146 ft 403 kts 220°
2026-05-05 18:26 58.60399 16.33433 33484 ft 403 kts 220°
2026-05-05 18:27 58.58060 16.30473 33804 ft 403 kts 220°
2026-05-05 18:27 58.55721 16.27520 34035 ft 402 kts 220°
2026-05-05 18:27 58.53381 16.24569 34234 ft 404 kts 219°
2026-05-05 18:27 58.51066 16.21653 34415 ft 405 kts 219°
2026-05-05 18:28 58.46334 16.15711 34856 ft 406 kts 219°
2026-05-05 18:28 58.43967 16.12747 35019 ft 408 kts 219°
2026-05-05 18:28 58.41586 16.09768 35163 ft 410 kts 219°
2026-05-05 18:29 58.39194 16.06782 35305 ft 411 kts 219°
2026-05-05 18:29 58.36795 16.03793 35509 ft 411 kts 219°
2026-05-05 18:29 58.34396 16.00810 35699 ft 412 kts 219°
2026-05-05 18:29 58.31993 15.97826 35866 ft 413 kts 219°
2026-05-05 18:30 58.27165 15.91841 35907 ft 416 kts 218°
2026-05-05 18:30 58.22317 15.85861 35913 ft 414 kts 218°
2026-05-05 18:31 58.17478 15.79909 35914 ft 413 kts 218°
2026-05-05 18:31 58.12685 15.74030 35914 ft 413 kts 218°
2026-05-05 18:32 58.07858 15.68130 35913 ft 413 kts 218°
2026-05-05 18:32 58.03041 15.62263 35912 ft 412 kts 218°
2026-05-05 18:33 57.98215 15.56399 35925 ft 413 kts 218°
2026-05-05 18:33 57.93354 15.50597 35927 ft 414 kts 218°
2026-05-05 18:34 57.88462 15.44818 35913 ft 416 kts 217°
2026-05-05 18:34 57.83555 15.39041 35913 ft 416 kts 217°
2026-05-05 18:35 57.78667 15.33300 35948 ft 417 kts 217°
2026-05-05 18:35 57.73744 15.27534 35920 ft 417 kts 217°
2026-05-05 18:36 57.68816 15.21781 35918 ft 416 kts 217°
2026-05-05 18:36 57.63900 15.16059 35916 ft 416 kts 217°
2026-05-05 18:37 57.58975 15.10345 35913 ft 416 kts 217°
2026-05-05 18:37 57.54060 15.04662 35916 ft 415 kts 217°
2026-05-05 18:38 57.49168 14.99022 35920 ft 416 kts 217°
2026-05-05 18:38 57.44245 14.93364 35918 ft 416 kts 217°
2026-05-05 18:39 57.39317 14.87719 35905 ft 417 kts 217°
2026-05-05 18:39 57.34374 14.82076 35929 ft 417 kts 217°
2026-05-05 18:40 57.29433 14.76454 35915 ft 417 kts 217°
2026-05-05 18:40 57.24481 14.70836 35920 ft 417 kts 217°
2026-05-05 18:41 57.19549 14.65257 35916 ft 418 kts 217°
2026-05-05 18:41 57.14579 14.59655 35916 ft 419 kts 217°
2026-05-05 18:42 57.09603 14.54064 35918 ft 419 kts 217°
2026-05-05 18:42 57.04624 14.48489 35914 ft 419 kts 216°
2026-05-05 18:43 56.99640 14.42925 35919 ft 419 kts 216°
2026-05-05 18:43 56.94648 14.37368 35898 ft 419 kts 216°
2026-05-05 18:44 56.89684 14.31861 35903 ft 420 kts 216°
2026-05-05 18:44 56.84689 14.26337 35910 ft 420 kts 216°
2026-05-05 18:45 56.79680 14.20815 35909 ft 419 kts 216°
2026-05-05 18:45 56.74673 14.15312 35923 ft 420 kts 216°
2026-05-05 18:46 56.69668 14.09829 35922 ft 420 kts 216°
2026-05-05 18:46 56.64650 14.04349 35925 ft 421 kts 216°
2026-05-05 18:47 56.59658 13.98914 35927 ft 421 kts 216°
2026-05-05 18:47 56.54632 13.93460 35920 ft 421 kts 216°
2026-05-05 18:48 56.49595 13.88010 35925 ft 421 kts 216°
2026-05-05 18:48 56.44551 13.82569 35929 ft 422 kts 216°
2026-05-05 18:49 56.39507 13.77147 35929 ft 422 kts 216°
2026-05-05 18:49 56.34486 13.71765 35904 ft 422 kts 215°
2026-05-05 18:50 56.29434 13.66367 35920 ft 422 kts 215°
2026-05-05 18:50 56.24366 13.60969 35935 ft 423 kts 215°
2026-05-05 18:51 56.19295 13.55584 35936 ft 424 kts 215°
2026-05-05 18:51 56.14209 13.50201 35940 ft 424 kts 215°
2026-05-05 18:52 56.09121 13.44832 35917 ft 424 kts 214°
2026-05-05 18:52 56.04025 13.39470 35931 ft 425 kts 214°
2026-05-05 18:53 55.98928 13.34125 35945 ft 425 kts 214°
2026-05-05 18:53 55.93852 13.28818 35936 ft 425 kts 214°
2026-05-05 18:54 55.88744 13.23494 35940 ft 425 kts 214°
2026-05-05 18:54 55.83633 13.18184 35927 ft 424 kts 214°
2026-05-05 18:55 55.78523 13.12891 35935 ft 424 kts 214°
2026-05-05 18:55 55.73426 13.07627 35936 ft 424 kts 214°
2026-05-05 18:56 55.68323 13.02372 35936 ft 424 kts 214°
2026-05-05 18:56 55.63199 12.97155 35938 ft 424 kts 213°
2026-05-05 18:57 55.58087 12.91938 35935 ft 423 kts 214°
2026-05-05 18:57 55.53001 12.86744 35930 ft 422 kts 214°
2026-05-05 18:58 55.47951 12.81603 35931 ft 421 kts 214°
2026-05-05 18:58 55.42871 12.76449 35932 ft 421 kts 214°
2026-05-05 18:59 55.38619 12.72149 35934 ft 421 kts 214°
2026-05-05 18:59 55.33574 12.67060 35932 ft 421 kts 214°
2026-05-05 19:00 55.28500 12.61956 35935 ft 420 kts 214°
2026-05-05 19:00 55.23420 12.56864 35935 ft 420 kts 214°
2026-05-05 19:01 55.18336 12.51781 35933 ft 420 kts 213°
2026-05-05 19:01 55.13246 12.46708 35913 ft 420 kts 214°
2026-05-05 19:02 55.08197 12.41691 35927 ft 419 kts 214°
2026-05-05 19:02 55.03124 12.36665 35929 ft 419 kts 214°
2026-05-05 19:03 54.98047 12.31649 35935 ft 419 kts 214°
2026-05-05 19:03 54.92970 12.26648 35928 ft 419 kts 214°
2026-05-05 19:04 54.87890 12.21659 35930 ft 418 kts 214°
2026-05-05 19:04 54.82827 12.16716 35925 ft 418 kts 212°
2026-05-05 19:05 54.77549 12.12355 35931 ft 421 kts 209°
2026-05-05 19:05 54.72228 12.08254 35926 ft 421 kts 209°
2026-05-05 19:06 54.66879 12.04111 35926 ft 421 kts 209°
2026-05-05 19:06 54.61559 11.99951 35911 ft 419 kts 209°
2026-05-05 19:07 54.56271 11.95802 35923 ft 417 kts 209°
2026-05-05 19:07 54.50981 11.91658 35923 ft 417 kts 209°
2026-05-05 19:08 54.45698 11.87530 35920 ft 416 kts 209°
2026-05-05 19:08 54.40420 11.83418 35914 ft 415 kts 209°
2026-05-05 19:09 54.35198 11.79363 35917 ft 414 kts 208°
2026-05-05 19:09 54.29952 11.75300 35921 ft 413 kts 208°
2026-05-05 19:10 54.24707 11.71249 35920 ft 413 kts 208°
2026-05-05 19:10 54.19440 11.67192 35921 ft 413 kts 208°
2026-05-05 19:11 54.14216 11.63180 35912 ft 413 kts 208°
2026-05-05 19:11 54.08976 11.59168 35916 ft 412 kts 208°
2026-05-05 19:12 54.03771 11.55192 35915 ft 412 kts 208°
2026-05-05 19:12 53.98525 11.51196 35915 ft 413 kts 208°
2026-05-05 19:13 53.93282 11.47214 35892 ft 413 kts 207°
2026-05-05 19:13 53.88025 11.43232 35905 ft 414 kts 207°
2026-05-05 19:14 53.82760 11.39255 35911 ft 414 kts 207°
2026-05-05 19:14 53.77489 11.35285 35906 ft 415 kts 207°
2026-05-05 19:15 53.72192 11.31306 35905 ft 416 kts 207°
2026-05-05 19:15 53.66940 11.27371 35905 ft 416 kts 207°
2026-05-05 19:16 53.61636 11.23409 35903 ft 417 kts 207°
2026-05-05 19:16 53.56322 11.19451 35903 ft 418 kts 207°
2026-05-05 19:17 53.51002 11.15499 35899 ft 418 kts 207°
2026-05-05 19:17 53.45677 11.11554 35882 ft 418 kts 206°
2026-05-05 19:18 53.40354 11.07621 35892 ft 418 kts 206°
2026-05-05 19:18 53.35018 11.03689 35896 ft 419 kts 206°
2026-05-05 19:19 53.29686 10.99771 35895 ft 419 kts 206°
2026-05-05 19:19 53.24344 10.95857 35894 ft 419 kts 206°
2026-05-05 19:20 53.19000 10.91951 35886 ft 419 kts 206°
2026-05-05 19:20 53.13696 10.88086 35892 ft 419 kts 206°
2026-05-05 19:21 53.08344 10.84196 35889 ft 419 kts 206°
2026-05-05 19:21 53.02998 10.80321 35887 ft 419 kts 206°
2026-05-05 19:22 52.97644 10.76451 35883 ft 419 kts 206°
2026-05-05 19:22 52.92291 10.72592 35882 ft 419 kts 205°
2026-05-05 19:23 52.86942 10.68746 35880 ft 419 kts 205°
2026-05-05 19:23 52.81627 10.64935 35876 ft 419 kts 205°
2026-05-05 19:24 52.76274 10.61107 35880 ft 419 kts 205°
2026-05-05 19:24 52.70911 10.57281 35875 ft 419 kts 205°
2026-05-05 19:25 52.65551 10.53470 35866 ft 420 kts 205°
2026-05-05 19:25 52.60188 10.49666 35866 ft 420 kts 205°
2026-05-05 19:26 52.54824 10.45870 35862 ft 420 kts 205°
2026-05-05 19:26 52.49452 10.42080 35858 ft 420 kts 204°
2026-05-05 19:27 52.44079 10.38299 35851 ft 420 kts 204°
2026-05-05 19:27 52.38695 10.34520 35871 ft 420 kts 204°
2026-05-05 19:28 52.33317 10.30756 35844 ft 421 kts 204°
2026-05-05 19:28 52.27933 10.26997 35833 ft 421 kts 204°
2026-05-05 19:29 52.22573 10.23265 35837 ft 421 kts 204°
2026-05-05 19:29 52.17178 10.19519 35829 ft 422 kts 204°
2026-05-05 19:30 52.11771 10.15774 35835 ft 422 kts 204°
2026-05-05 19:30 52.06362 10.12038 35832 ft 422 kts 203°
2026-05-05 19:31 52.00959 10.08316 35826 ft 422 kts 203°
2026-05-05 19:31 51.95547 10.04596 35830 ft 422 kts 203°
2026-05-05 19:32 51.90173 10.00913 35820 ft 422 kts 203°
2026-05-05 19:32 51.84761 9.97214 35808 ft 422 kts 202°
2026-05-05 19:33 51.79339 9.93517 35809 ft 423 kts 202°
2026-05-05 19:33 51.73907 9.89823 35815 ft 423 kts 202°
2026-05-05 19:34 51.68484 9.86145 35808 ft 423 kts 202°
2026-05-05 19:35 51.60228 9.81274 35808 ft 423 kts 197°
2026-05-05 19:35 51.54539 9.78535 35802 ft 424 kts 196°
2026-05-05 19:36 51.48925 9.75820 35799 ft 424 kts 197°
2026-05-05 19:36 51.43274 9.73044 35798 ft 424 kts 197°
2026-05-05 19:37 51.37626 9.70251 35787 ft 425 kts 196°
2026-05-05 19:37 51.31971 9.67457 35799 ft 426 kts 196°
2026-05-05 19:38 51.26305 9.64664 35792 ft 426 kts 196°
2026-05-05 19:38 51.20628 9.61874 35793 ft 426 kts 196°
2026-05-05 19:39 51.14986 9.59108 35778 ft 427 kts 196°
2026-05-05 19:39 51.09290 9.56324 35792 ft 428 kts 195°
2026-05-05 19:40 51.03595 9.53547 35802 ft 428 kts 195°
2026-05-05 19:40 50.97885 9.50770 35797 ft 429 kts 195°
2026-05-05 19:41 50.92175 9.48000 35783 ft 429 kts 195°
2026-05-05 19:41 50.86456 9.45233 35806 ft 430 kts 195°
2026-05-05 19:42 50.80736 9.42438 35793 ft 430 kts 196°
2026-05-05 19:42 50.75010 9.39670 35800 ft 430 kts 196°
2026-05-05 19:43 50.69305 9.36935 35815 ft 430 kts 196°
2026-05-05 19:43 50.63571 9.34192 35801 ft 431 kts 196°
2026-05-05 19:44 50.57832 9.31452 35804 ft 431 kts 196°
2026-05-05 19:44 50.52095 9.28718 35798 ft 430 kts 195°
2026-05-05 19:45 50.47330 9.26453 35801 ft 430 kts 195°
2026-05-05 19:45 50.41594 9.23733 35815 ft 431 kts 195°
2026-05-05 19:46 50.35844 9.21013 35807 ft 432 kts 195°
2026-05-05 19:46 50.30083 9.18294 35800 ft 432 kts 195°
2026-05-05 19:47 50.24322 9.15583 35807 ft 433 kts 195°
2026-05-05 19:47 50.18539 9.12867 35818 ft 434 kts 195°
2026-05-05 19:48 50.12779 9.10170 35810 ft 435 kts 195°
2026-05-05 19:48 50.06975 9.07483 35805 ft 436 kts 195°
2026-05-05 19:49 50.01150 9.04789 35809 ft 437 kts 195°
2026-05-05 19:49 49.95319 9.02077 35811 ft 437 kts 195°
2026-05-05 19:50 49.89480 8.99365 35812 ft 438 kts 195°
2026-05-05 19:50 49.83643 8.96642 35820 ft 438 kts 196°
2026-05-05 19:51 49.77799 8.93926 35815 ft 438 kts 195°
2026-05-05 19:51 49.71979 8.91251 35812 ft 438 kts 195°
2026-05-05 19:52 49.66142 8.88578 35821 ft 438 kts 195°
2026-05-05 19:52 49.60293 8.85902 35824 ft 438 kts 196°
2026-05-05 19:53 49.54450 8.83235 35822 ft 438 kts 196°
2026-05-05 19:53 49.48613 8.80576 35825 ft 437 kts 196°
2026-05-05 19:54 49.42775 8.77924 35828 ft 437 kts 196°
2026-05-05 19:54 49.36937 8.75279 35827 ft 437 kts 196°
2026-05-05 19:55 49.31094 8.72638 35829 ft 437 kts 196°
2026-05-05 19:55 49.25266 8.70011 35822 ft 436 kts 196°
2026-05-05 19:56 49.19472 8.67406 35811 ft 436 kts 197°
2026-05-05 19:56 49.13658 8.64800 35820 ft 435 kts 197°
2026-05-05 19:57 49.07844 8.62201 35823 ft 435 kts 197°
2026-05-05 19:57 49.02038 8.59610 35825 ft 434 kts 197°
2026-05-05 19:58 48.96184 8.57265 35833 ft 434 kts 193°
2026-05-05 19:58 48.90254 8.55361 35828 ft 435 kts 192°
2026-05-05 19:59 48.84368 8.53512 35838 ft 435 kts 192°
2026-05-05 19:59 48.78402 8.51611 35838 ft 435 kts 193°
2026-05-05 20:00 48.72519 8.49721 35835 ft 436 kts 193°
2026-05-05 20:00 48.66580 8.47814 35841 ft 436 kts 193°
2026-05-05 20:01 48.60645 8.45913 35845 ft 436 kts 193°
2026-05-05 20:01 48.54703 8.44016 35844 ft 436 kts 193°
2026-05-05 20:02 48.48795 8.42134 35851 ft 436 kts 193°
2026-05-05 20:02 48.42847 8.40245 35853 ft 436 kts 193°
2026-05-05 20:03 48.36901 8.38361 35857 ft 436 kts 193°
2026-05-05 20:03 48.30955 8.36483 35858 ft 436 kts 193°
2026-05-05 20:04 48.25016 8.34613 35861 ft 436 kts 193°
2026-05-05 20:04 48.19066 8.32822 35853 ft 436 kts 188°
2026-05-05 20:05 48.12989 8.32922 35868 ft 439 kts 173°
2026-05-05 20:05 48.06954 8.34438 35880 ft 439 kts 173°
2026-05-05 20:06 48.00922 8.35966 35875 ft 440 kts 173°
2026-05-05 20:06 47.94879 8.37450 35877 ft 440 kts 173°
2026-05-05 20:07 47.88867 8.38904 35889 ft 440 kts 174°
2026-05-05 20:07 47.82820 8.40362 35892 ft 440 kts 174°
2026-05-05 20:08 47.76761 8.41825 35889 ft 440 kts 173°
2026-05-05 20:08 47.70708 8.43280 35878 ft 440 kts 174°
2026-05-05 20:09 47.64662 8.44453 35907 ft 436 kts 178°
2026-05-05 20:09 47.58619 8.45274 35904 ft 434 kts 178°
2026-05-05 20:10 47.52641 8.46094 35908 ft 434 kts 178°
2026-05-05 20:10 47.46612 8.46966 35911 ft 433 kts 178°
2026-05-05 20:11 47.40655 8.47843 35915 ft 433 kts 178°
2026-05-05 20:11 47.34658 8.48725 35904 ft 432 kts 178°
2026-05-05 20:12 47.28659 8.49603 35915 ft 433 kts 178°
2026-05-05 20:12 47.22663 8.50473 35905 ft 433 kts 178°
2026-05-05 20:13 47.16659 8.51339 35913 ft 433 kts 178°
2026-05-05 20:13 47.10703 8.52208 35904 ft 418 kts 178°
2026-05-05 20:13 47.07904 8.52618 35902 ft 403 kts 179°
2026-05-05 20:14 47.05169 8.53014 35888 ft 387 kts 179°
2026-05-05 20:14 47.02528 8.53397 35920 ft 373 kts 179°
2026-05-05 20:14 46.99982 8.53763 35894 ft 361 kts 180°
2026-05-05 20:14 46.97528 8.54117 35898 ft 348 kts 180°
2026-05-05 20:15 46.95157 8.54458 35909 ft 336 kts 180°
2026-05-05 20:15 46.90498 8.55117 35929 ft 340 kts 180°
2026-05-05 20:16 46.85709 8.55795 35934 ft 350 kts 180°
2026-05-05 20:16 46.80883 8.56491 35954 ft 348 kts 180°
2026-05-05 20:17 46.76051 8.57187 35900 ft 349 kts 181°
2026-05-05 20:17 46.73621 8.57535 35440 ft 351 kts 181°
2026-05-05 20:17 46.71200 8.57885 35122 ft 349 kts 181°
2026-05-05 20:17 46.68825 8.58231 34720 ft 343 kts 181°
2026-05-05 20:18 46.66466 8.58565 34390 ft 338 kts 182°
2026-05-05 20:18 46.64135 8.58901 34049 ft 336 kts 183°
2026-05-05 20:18 46.61818 8.59231 33645 ft 332 kts 183°
2026-05-05 20:18 46.59541 8.59559 33293 ft 323 kts 183°
2026-05-05 20:19 46.57342 8.59872 33002 ft 314 kts 183°
2026-05-05 20:19 46.55198 8.60173 32687 ft 305 kts 184°
2026-05-05 20:19 46.53104 8.60466 32396 ft 299 kts 184°
2026-05-05 20:19 46.51048 8.60752 32077 ft 296 kts 184°
2026-05-05 20:20 46.48991 8.61036 31832 ft 298 kts 183°
2026-05-05 20:20 46.46912 8.61320 31555 ft 304 kts 183°
2026-05-05 20:20 46.44816 8.61323 31282 ft 295 kts 195°
2026-05-05 20:20 46.42860 8.60682 31049 ft 290 kts 203°
2026-05-05 20:21 46.41020 8.59541 30728 ft 287 kts 213°
2026-05-05 20:21 46.39332 8.58043 30490 ft 283 kts 216°
2026-05-05 20:21 46.37674 8.56500 30238 ft 283 kts 215°
2026-05-05 20:21 46.36009 8.54986 29928 ft 283 kts 214°
2026-05-05 20:22 46.34342 8.53493 29639 ft 280 kts 214°
2026-05-05 20:22 46.32685 8.51999 29310 ft 281 kts 214°
2026-05-05 20:22 46.31021 8.50510 28982 ft 281 kts 214°
2026-05-05 20:22 46.29354 8.49037 28717 ft 280 kts 211°
2026-05-05 20:23 46.27523 8.48050 28377 ft 282 kts 198°
2026-05-05 20:23 46.25590 8.47572 28063 ft 282 kts 189°
2026-05-05 20:23 46.23626 8.47663 27760 ft 282 kts 181°
2026-05-05 20:23 46.21679 8.47958 27483 ft 281 kts 180°
2026-05-05 20:24 46.19737 8.48274 27176 ft 280 kts 181°
2026-05-05 20:24 46.17806 8.48577 26911 ft 278 kts 181°
2026-05-05 20:24 46.15882 8.48867 26638 ft 278 kts 181°
2026-05-05 20:24 46.13954 8.49152 26358 ft 278 kts 181°
2026-05-05 20:25 46.12022 8.49443 26069 ft 279 kts 178°
2026-05-05 20:25 46.10112 8.50066 25796 ft 283 kts 169°
2026-05-05 20:25 46.08248 8.50999 25528 ft 284 kts 166°
2026-05-05 20:25 46.06427 8.51996 25244 ft 283 kts 166°
2026-05-05 20:26 46.04590 8.53011 24986 ft 283 kts 166°
2026-05-05 20:26 46.02737 8.54026 24613 ft 286 kts 165°
2026-05-05 20:26 46.00866 8.55045 24309 ft 287 kts 165°
2026-05-05 20:26 45.99001 8.56053 23966 ft 286 kts 165°
2026-05-05 20:27 45.97145 8.57055 23639 ft 284 kts 165°
2026-05-05 20:27 45.95299 8.58050 23269 ft 283 kts 165°
2026-05-05 20:27 45.93457 8.59039 22884 ft 282 kts 165°
2026-05-05 20:27 45.91625 8.60022 22482 ft 278 kts 165°
2026-05-05 20:28 45.89845 8.61035 22087 ft 274 kts 158°
2026-05-05 20:28 45.88283 8.62618 21718 ft 275 kts 148°
2026-05-05 20:28 45.86808 8.64353 21361 ft 274 kts 147°
2026-05-05 20:28 45.85333 8.66095 21004 ft 275 kts 147°
2026-05-05 20:29 45.83851 8.67835 20650 ft 276 kts 147°
2026-05-05 20:29 45.82358 8.69573 20262 ft 276 kts 148°
2026-05-05 20:29 45.81371 8.70716 20044 ft 276 kts 148°
2026-05-05 20:29 45.79386 8.73005 19585 ft 276 kts 148°
2026-05-05 20:30 45.78373 8.74169 19364 ft 277 kts 148°
2026-05-05 20:30 45.76381 8.76439 18919 ft 275 kts 150°
2026-05-05 20:30 45.75301 8.77434 18695 ft 272 kts 156°
2026-05-05 20:30 45.73643 8.78706 18370 ft 270 kts 158°
2026-05-05 20:31 45.71969 8.79938 17998 ft 269 kts 158°
2026-05-05 20:31 45.70306 8.81170 17628 ft 268 kts 158°
2026-05-05 20:31 45.68654 8.82412 17255 ft 267 kts 157°
2026-05-05 20:31 45.67021 8.83655 16886 ft 266 kts 157°
2026-05-05 20:32 45.65397 8.84897 16530 ft 264 kts 157°
2026-05-05 20:32 45.63804 8.86118 16165 ft 262 kts 157°
2026-05-05 20:32 45.62203 8.87345 15805 ft 260 kts 156°
2026-05-05 20:32 45.60708 8.88834 15431 ft 269 kts 136°
2026-05-05 20:33 45.59694 8.91145 15106 ft 276 kts 115°
2026-05-05 20:33 45.59317 8.93784 15024 ft 273 kts 98°
2026-05-05 20:33 45.59256 8.96486 14972 ft 274 kts 84°
2026-05-05 20:33 45.59891 8.99053 15009 ft 280 kts 58°
2026-05-05 20:34 45.61182 9.01165 14982 ft 285 kts 35°
2026-05-05 20:34 45.62920 9.02531 15011 ft 285 kts 22°
2026-05-05 20:34 45.64754 9.03628 14989 ft 284 kts 14°
2026-05-05 20:34 45.66679 9.03851 14988 ft 274 kts 345°
2026-05-05 20:35 45.68420 9.02909 14988 ft 265 kts 321°
2026-05-05 20:35 45.69713 9.01123 14990 ft 255 kts 298°
2026-05-05 20:35 45.70401 8.98839 14983 ft 248 kts 276°
2026-05-05 20:35 45.70428 8.96449 14987 ft 242 kts 256°
2026-05-05 20:36 45.69823 8.94201 14994 ft 240 kts 237°
2026-05-05 20:36 45.68771 8.92363 14996 ft 240 kts 220°
2026-05-05 20:36 45.67345 8.91173 15001 ft 241 kts 206°
2026-05-05 20:36 45.65798 8.90195 14996 ft 243 kts 205°
2026-05-05 20:37 45.64244 8.89233 14996 ft 244 kts 205°
2026-05-05 20:37 45.62681 8.88267 14994 ft 245 kts 205°
2026-05-05 20:37 45.61085 8.87380 14981 ft 248 kts 193°
2026-05-05 20:37 45.59363 8.87407 15001 ft 252 kts 171°
2026-05-05 20:38 45.57735 8.88409 14992 ft 260 kts 148°
2026-05-05 20:38 45.56476 8.90295 14991 ft 268 kts 124°
2026-05-05 20:38 45.55867 8.92836 14983 ft 276 kts 97°
2026-05-05 20:38 45.56118 8.95555 14988 ft 281 kts 69°
2026-05-05 20:39 45.57224 8.97837 14992 ft 282 kts 40°
2026-05-05 20:39 45.58875 8.99309 14997 ft 280 kts 22°
2026-05-05 20:39 45.60669 9.00409 14991 ft 281 kts 20°
2026-05-05 20:39 45.62483 9.01489 15002 ft 283 kts 21°
2026-05-05 20:40 45.64305 9.02597 14986 ft 285 kts 21°
2026-05-05 20:40 45.66128 9.03722 14986 ft 286 kts 21°
2026-05-05 20:40 45.67937 9.04827 14979 ft 286 kts 16°
2026-05-05 20:40 45.69870 9.05141 14988 ft 277 kts 346°
2026-05-05 20:41 45.71614 9.04170 14988 ft 266 kts 319°
2026-05-05 20:41 45.72844 9.02279 14991 ft 256 kts 294°
2026-05-05 20:41 45.73402 8.99927 14998 ft 248 kts 272°
2026-05-05 20:41 45.73269 8.97510 14990 ft 243 kts 250°
2026-05-05 20:42 45.72513 8.95369 14999 ft 241 kts 232°
2026-05-05 20:42 45.71309 8.93719 14979 ft 242 kts 211°
2026-05-05 20:42 45.69793 8.92674 14998 ft 243 kts 205°
2026-05-05 20:42 45.68236 8.91707 14995 ft 244 kts 205°
2026-05-05 20:43 45.66671 8.90743 14996 ft 245 kts 205°
2026-05-05 20:43 45.65100 8.89772 14906 ft 246 kts 205°
2026-05-05 20:43 45.63529 8.88798 14791 ft 246 kts 205°
2026-05-05 20:43 45.61958 8.87825 14653 ft 245 kts 205°
2026-05-05 20:44 45.60303 8.87271 14504 ft 248 kts 181°
2026-05-05 20:44 45.58619 8.87764 14386 ft 251 kts 160°
2026-05-05 20:44 45.57150 8.89188 14211 ft 260 kts 137°
2026-05-05 20:44 45.56198 8.91360 14071 ft 268 kts 111°
2026-05-05 20:45 45.56645 8.96580 13984 ft 279 kts 54°
2026-05-05 20:45 45.58042 8.98465 13998 ft 277 kts 28°
2026-05-05 20:45 45.59777 8.99652 13995 ft 277 kts 21°
2026-05-05 20:46 45.61555 9.00718 13991 ft 277 kts 21°
2026-05-05 20:46 45.63337 9.01792 13992 ft 278 kts 21°
2026-05-05 20:46 45.65111 9.02881 13982 ft 278 kts 21°
2026-05-05 20:46 45.66885 9.03982 13981 ft 277 kts 21°
2026-05-05 20:47 45.68668 9.04908 13969 ft 274 kts
2026-05-05 20:47 45.70515 9.04696 13986 ft 263 kts 336°
2026-05-05 20:47 45.72050 9.03389 13982 ft 254 kts 310°
2026-05-05 20:47 45.73035 9.01355 13994 ft 246 kts 287°
2026-05-05 20:48 45.73363 8.98992 13997 ft 241 kts 265°
2026-05-05 20:48 45.73012 8.96666 13993 ft 239 kts 243°
2026-05-05 20:48 45.72099 8.94683 14001 ft 239 kts 226°
2026-05-05 20:48 45.70778 8.93291 13997 ft 241 kts 208°
2026-05-05 20:49 45.69223 8.92272 13992 ft 243 kts 205°
2026-05-05 20:49 45.67650 8.91318 13798 ft 249 kts 205°
2026-05-05 20:49 45.66069 8.90357 13532 ft 249 kts 205°
2026-05-05 20:49 45.64489 8.89387 13256 ft 245 kts 205°
2026-05-05 20:50 45.62937 8.88428 12984 ft 242 kts 205°
2026-05-05 20:50 45.61392 8.87510 12705 ft 239 kts 198°
2026-05-05 20:50 45.59741 8.87385 12429 ft 241 kts 172°
2026-05-05 20:50 45.58184 8.88270 12173 ft 244 kts 148°
2026-05-05 20:51 45.57007 8.90023 11915 ft 249 kts 123°
2026-05-05 20:51 45.56462 8.92376 11657 ft 254 kts 96°
2026-05-05 20:51 45.56720 8.94859 11405 ft 257 kts 68°
2026-05-05 20:51 45.57744 8.96927 11126 ft 259 kts 41°
2026-05-05 20:52 45.59295 8.98262 10767 ft 263 kts 23°
2026-05-05 20:52 45.60983 8.99303 10423 ft 266 kts 22°
2026-05-05 20:52 45.62693 9.00348 10069 ft 268 kts 22°
2026-05-05 20:52 45.64409 9.01404 9699 ft 269 kts 23°
2026-05-05 20:53 45.66206 9.02109 9266 ft 269 kts 358°
2026-05-05 20:53 45.67989 9.01499 9015 ft 259 kts 328°
2026-05-05 20:53 45.69285 8.99876 8976 ft 242 kts 301°
2026-05-05 20:53 45.69933 8.97744 8989 ft 234 kts 277°
2026-05-05 20:54 45.69920 8.95462 8997 ft 231 kts 254°
2026-05-05 20:54 45.69269 8.93376 9006 ft 231 kts 233°
2026-05-05 20:54 45.68145 8.91762 8988 ft 230 kts 212°
2026-05-05 20:54 45.66709 8.90750 9005 ft 230 kts 204°
2026-05-05 20:55 45.65237 8.89839 8992 ft 231 kts 204°
2026-05-05 20:55 45.63755 8.88926 8989 ft 232 kts 204°
2026-05-05 20:55 45.62276 8.88013 8988 ft 232 kts 204°
2026-05-05 20:55 45.60748 8.87322 8976 ft 232 kts 183°
2026-05-05 20:56 45.59175 8.87748 8994 ft 233 kts 156°
2026-05-05 20:56 45.57897 8.89177 8988 ft 238 kts 129°
2026-05-05 20:56 45.57218 8.91333 8984 ft 242 kts 101°
2026-05-05 20:56 45.57361 8.93717 8983 ft 246 kts 70°
2026-05-05 20:57 45.58335 8.95697 8995 ft 247 kts 39°
2026-05-05 20:57 45.59811 8.96945 9005 ft 247 kts 24°
2026-05-05 20:57 45.61400 8.97923 8991 ft 250 kts 22°
2026-05-05 20:57 45.63008 8.98888 8748 ft 258 kts 22°
2026-05-05 20:58 45.64658 8.99891 8491 ft 256 kts 23°
2026-05-05 20:58 45.66368 9.00474 8187 ft 252 kts 355°
2026-05-05 20:58 45.67990 8.99729 7945 ft 244 kts 323°
2026-05-05 20:58 45.69095 8.97987 7691 ft 235 kts 294°
2026-05-05 20:59 45.69473 8.95765 7446 ft 229 kts 266°
2026-05-05 20:59 45.69102 8.93592 7197 ft 225 kts 240°
2026-05-05 20:59 45.68130 8.91872 6967 ft 223 kts 217°
2026-05-05 20:59 45.66794 8.90758 6730 ft 223 kts 204°
2026-05-05 21:00 45.65369 8.89876 6492 ft 223 kts 202°
2026-05-05 21:00 45.63936 8.89009 6243 ft 224 kts 202°
2026-05-05 21:00 45.62503 8.88135 6045 ft 223 kts 203°
2026-05-05 21:00 45.61044 8.87431 5986 ft 222 kts 182°
2026-05-05 21:01 45.59555 8.87871 6023 ft 220 kts 163°
2026-05-05 21:01 45.58071 8.88478 6011 ft 223 kts 166°
2026-05-05 21:01 45.56561 8.89001 6007 ft 224 kts 168°
2026-05-05 21:01 45.55059 8.89464 5995 ft 224 kts 169°
2026-05-05 21:02 45.53531 8.89904 5993 ft 223 kts 169°
2026-05-05 21:02 45.52007 8.90330 6000 ft 222 kts 169°
2026-05-05 21:02 45.50489 8.90748 5997 ft 222 kts 169°
2026-05-05 21:02 45.48972 8.91166 5988 ft 222 kts 170°
2026-05-05 21:03 45.47452 8.91581 5992 ft 222 kts 170°
2026-05-05 21:03 45.45939 8.91994 5992 ft 221 kts 170°
2026-05-05 21:03 45.44423 8.92407 5998 ft 221 kts 170°
2026-05-05 21:03 45.42911 8.92818 5994 ft 221 kts 170°
2026-05-05 21:04 45.41422 8.93222 5980 ft 215 kts 170°
2026-05-05 21:04 45.39989 8.93611 5983 ft 210 kts 170°
2026-05-05 21:04 45.38566 8.93997 6007 ft 206 kts 170°
2026-05-05 21:04 45.37161 8.94378 6012 ft 205 kts 171°
2026-05-05 21:05 45.35769 8.94756 6015 ft 204 kts 171°
2026-05-05 21:05 45.34360 8.95136 6006 ft 209 kts 171°
2026-05-05 21:05 45.32922 8.95525 5995 ft 210 kts 171°
2026-05-05 21:05 45.31495 8.95911 5984 ft 209 kts 171°
2026-05-05 21:06 45.30068 8.96298 5985 ft 208 kts 171°
2026-05-05 21:06 45.28648 8.96684 5991 ft 208 kts 171°
2026-05-05 21:06 45.27241 8.97066 5967 ft 208 kts 171°
2026-05-05 21:06 45.25825 8.97451 5971 ft 207 kts 171°
2026-05-05 21:07 45.24407 8.97835 5973 ft 207 kts 171°
2026-05-05 21:07 45.22989 8.98219 5974 ft 207 kts 171°
2026-05-05 21:07 45.21563 8.98414 5959 ft 206 kts 191°
2026-05-05 21:07 45.20314 8.97510 5975 ft 205 kts 226°
2026-05-05 21:08 45.19690 8.95709 5960 ft 208 kts 260°
2026-05-05 21:08 45.19913 8.93694 5696 ft 212 kts 294°
2026-05-05 21:08 45.20927 8.92159 5194 ft 221 kts 327°
2026-05-05 21:08 45.22313 8.91183 4734 ft 223 kts 333°
2026-05-05 21:09 45.23705 8.90282 4320 ft 221 kts 334°
2026-05-05 21:09 45.25086 8.89370 4007 ft 217 kts 334°
2026-05-05 21:09 45.26458 8.88431 4013 ft 220 kts 334°
2026-05-05 21:09 45.27829 8.87485 3993 ft 217 kts 334°
2026-05-05 21:10 45.29182 8.86548 3999 ft 216 kts 333°
2026-05-05 21:10 45.30542 8.85604 3994 ft 218 kts 333°
2026-05-05 21:10 45.31895 8.84665 3995 ft 218 kts 333°
2026-05-05 21:10 45.33267 8.83711 4000 ft 218 kts 333°
2026-05-05 21:11 45.34629 8.82763 4004 ft 218 kts 333°
2026-05-05 21:11 45.35994 8.81814 3998 ft 219 kts 333°
2026-05-05 21:11 45.37362 8.80873 4003 ft 219 kts 337°
2026-05-05 21:11 45.38846 8.80497 4013 ft 217 kts 358°
2026-05-05 21:12 45.40358 8.80286 4003 ft 218 kts 353°
2026-05-05 21:12 45.41846 8.80012 3997 ft 218 kts 352°
2026-05-05 21:12 45.43346 8.79656 3998 ft 218 kts 349°
2026-05-05 21:12 45.44855 8.79230 3994 ft 218 kts 348°
2026-05-05 21:13 45.46354 8.78781 3799 ft 222 kts 348°
2026-05-05 21:13 45.47837 8.78323 3511 ft 216 kts 348°
2026-05-05 21:13 45.49264 8.77875 3230 ft 204 kts 349°
2026-05-05 21:13 45.50610 8.77450 2959 ft 192 kts 349°
2026-05-05 21:14 45.51879 8.77050 2722 ft 185 kts 349°
2026-05-05 21:14 45.53133 8.76655 2480 ft 183 kts 349°
2026-05-05 21:14 45.54371 8.76260 2220 ft 181 kts 349°
2026-05-05 21:14 45.55571 8.75746 1896 ft 179 kts 342°
2026-05-05 21:15 45.56670 8.75160 1731 ft 156 kts 341°
2026-05-05 21:15 45.57653 8.74757 1537 ft 139 kts 351°
2026-05-05 21:15 45.58589 8.74562 1312 ft 134 kts 352°
2026-05-05 21:15 45.59493 8.74321 1107 ft 133 kts 350°
2026-05-05 21:16 45.60089 8.74148 1022 ft 132 kts 350°
2026-05-05 21:16 45.60994 8.73905 871 ft 132 kts 350°
2026-05-05 21:16 45.61892 8.73656 745 ft 128 kts 350°
2026-05-05 21:16 45.62556 8.73491 737 ft 55 kts 348°
2026-05-05 21:17 45.62868 8.73393 735 ft 42 kts 344°
2026-05-05 21:17 45.63108 8.73272 734 ft 27 kts 325°
2026-05-05 21:17 45.63221 8.73142 735 ft 14 kts 321°
2026-05-05 21:17 45.63275 8.73035 735 ft 13 kts 294°
2026-05-05 21:18 45.63325 8.72928 735 ft 13 kts 303°
2026-05-05 21:18 45.63373 8.72823 735 ft 12 kts 303°
2026-05-05 21:18 45.63407 8.72714 734 ft 12 kts 275°
2026-05-05 21:18 45.63404 8.72596 735 ft 12 kts 262°
2026-05-05 21:19 45.63386 8.72485 734 ft 12 kts 255°
2026-05-05 21:19 45.63369 8.72366 736 ft 13 kts 258°
2026-05-05 21:19 45.63362 8.72317 737 ft 0 kts 259°
2026-05-05 21:20 45.63362 8.72314 737 ft 2 kts 259°
2026-05-05 21:20 45.63356 8.72267 737 ft 8 kts 259°
2026-05-05 21:20 45.63341 8.72147 738 ft 16 kts 260°
2026-05-05 21:20 45.63332 8.72082 737 ft 0 kts 258°
2026-05-05 21:21 45.63331 8.72072 735 ft 3 kts 258°
2026-05-05 21:21 45.63329 8.72063 736 ft 0 kts 259°
2026-05-05 21:22 45.63326 8.72041 736 ft 5 kts 259°
2026-05-05 21:22 45.63300 8.71978 736 ft 10 kts 208°
2026-05-05 21:22 45.63225 8.71983 734 ft 12 kts 168°
2026-05-05 21:22 45.63138 8.72008 734 ft 14 kts 168°
2026-05-05 21:23 45.63042 8.72031 736 ft 14 kts 166°
2026-05-05 21:23 45.62951 8.72061 734 ft 13 kts 172°
2026-05-05 21:23 45.62862 8.72088 735 ft 13 kts 174°
2026-05-05 21:23 45.62774 8.72104 736 ft 13 kts 173°
2026-05-05 21:24 45.62689 8.72130 735 ft 12 kts 167°
2026-05-05 21:24 45.62606 8.72152 736 ft 12 kts 169°
2026-05-05 21:24 45.62526 8.72179 735 ft 12 kts 166°
2026-05-05 21:24 45.62448 8.72198 736 ft 11 kts 169°
2026-05-05 21:25 45.62378 8.72172 736 ft 11 kts 235°
2026-05-05 21:25 45.62357 8.72068 736 ft 11 kts 258°
2026-05-05 21:25 45.62343 8.71964 735 ft 10 kts 258°
2026-05-05 21:25 45.62331 8.71864 735 ft 10 kts 261°
2026-05-05 21:26 45.62317 8.71767 735 ft 10 kts 258°
2026-05-05 21:26 45.62307 8.71696 735 ft 3 kts 262°
2026-05-05 21:26 45.62316 8.71667 734 ft 3 kts 327°
2026-05-05 21:26 45.62334 8.71659 735 ft 3 kts 344°
2026-05-05 21:27 45.62356 8.71652 734 ft 3 kts 349°
2026-05-05 21:27 45.62370 8.71648 735 ft 0 kts 349°
2026-05-05 21:27 45.62372 8.71648 735 ft 0 kts 349°